Regional Weather Roundup
Issued by NWS

Home | Current Version | Previous Version | Text Only | Print | Product List | Glossary Off
Versions: 1 2 3 4 5 6 7 8 9 10 11 12 13 14 15 16 17 18 19 20 21 22 23 24 25 26 27 28 29 30 31 32 33 34 35 36 37 38 39 40 41 42 43 44 45 46 47 48 49 50

000
ASUS43 KBIS 280010
RWRND

NORTH DAKOTA REGIONAL WEATHER ROUNDUP
NATIONAL WEATHER SERVICE BISMARCK ND
700 PM CDT SAT AUG 27 2016

NOTE: "FAIR" INDICATES FEW OR NO CLOUDS BELOW 12,000 FEET WITH NO
SIGNIFICANT WEATHER AND/OR OBSTRUCTIONS TO VISIBILITY.


NDZ001>003-009>011-017-280100-
NORTHWEST NORTH DAKOTA

CITY           SKY/WX    TMP DP  RH WIND       PRES   REMARKS
WILLISTON      SUNNY     82  43  25 SE9       29.79F
6HR MIN TEMP:  74; 6HR MAX TEMP:  83;

MINOT          SUNNY     78  43  28 S7        29.85R
MINOT AFB      SUNNY     79  42  26 VRB3      29.84R
$$

NDZ018>021-031>035-040>046-280100-
SOUTHWEST NORTH DAKOTA

CITY           SKY/WX    TMP DP  RH WIND       PRES   REMARKS
BISMARCK       SUNNY     79  50  36 S7        29.87S
6HR MIN TEMP:  73; 6HR MAX TEMP:  80;

DICKINSON      SUNNY     78  38  23 S12       29.84F
GARRISON         N/A     77  48  35 E5        29.86S
6HR MIN TEMP:  72; 6HR MAX TEMP:  79;

HETTINGER ARPT SUNNY     80  44  27 SE10      29.88F
$$

NDZ004>008-012>016-024-026-027-054-280100-
NORTHEAST NORTH DAKOTA

CITY           SKY/WX    TMP DP  RH WIND       PRES   REMARKS
GRAND FORKS    CLOUDY    67  60  78 S7        29.89F
GRND FRKS AFB  CLOUDY    66  57  72 S8        29.90F
$$

NDZ022-023-025-028>030-036>039-047>053-280100-
SOUTHEAST NORTH DAKOTA

CITY           SKY/WX    TMP DP  RH WIND       PRES   REMARKS
FARGO          MOSUNNY   72  59  63 SE9G22    29.92R
6HR MIN TEMP:  59; 6HR MAX TEMP:  74; 6HR PCP:  0.23;

JAMESTOWN      SUNNY     76  64  66 E3        29.89R
$$





USA.gov is the U.S. government's official web portal to all federal, state and local government web resources and services.